DECAYED

STARLINK-2182, 47764 (Decayed)

Orbit data source: Space-Track

STARLINK-2182, 47764 was a payload satellite owned by SpaceX/Seattle (US) in LEO that was launched on Thu, 04 Mar 2021 UTC via an FALCON 9 launch vehicle from the Air Force Eastern Test Range (AFETR). Payload-class satellites include a variety of spacecraft equipped with specific instruments for various scientific and technological missions. These include communications satellites like Starlink; space stations such as the ISS; scientific satellites like the Hubble; Earth observation satellites from companies like Planet Labs, Umbra, and HawkEye 360; GPS; miniature CubeSats for education and research; and military/defense satellites.

Not visible in the next 10 days
Identifier
47764, 2021-017AU
Orbit
Decayed
Country
Flag of USUS
Related business
Manufacturer
SpaceX/Seattle
Mission
Decayed Commercial Communications
Bus & Motor
STARLINK, Unknown motor
Mass
260 kg wet, ~248 kg dry
Launch date (UTC)
2021-03-04 (5 years ago)
Launch vehicle
FALCON 9
Launch site
Air Force Eastern Test Range (AFETR)
Object type
Payload
Rocket body
Debris
Shape & HBR
Box + 1 Pan, 10.1 m
Radar Cross Section
13.562 m², Large (>1 m²)

Expand to show TLE details & history
Last TLE update: 2 years ago

TLE from 2 years ago
0 STARLINK-2182
1 47764U 21017AU  25032.47314119  .10556508  12608-4  34011-3 0  9994
2 47764  53.0235 193.2997 0008280  21.9388  73.9905 16.44214951216893
Epoch: 2025-02-01T11:21Z
TLE epoch observation values (Epoch: 2025-02-01T11:21:19.398Z)
Latitude
52.76445°
Longitude
-8.99536°
Altitude
159.506 km
Speed
7.818 km/s
True Right ascension
19h 33m 01s
True Declination
52° 35' 00"
Sunlit
Object was in daylight at epoch
Visualization orbit readout
Latitude
Unknown
Longitude
Unknown
Altitude
Unknown
Speed
Unknown
Apparent Right ascension
Unknown
Apparent Declination
Unknown
Sunlit
N/A
Visualization observer readout
Local Sidereal Time
04:19:27
Azimuth
Unknown
Elevation
Unknown
Doppler factor
Unknown
Orbital elements
Apogee altitude
160.315 km
Perigee altitude
149.497 km
Semi-major axis
6,533.043 km
Eccentricity
0.00083
Inclination
53.0235°
RAAN
193.2997°
Arg. of periapsis
21.9388°
True anomaly
74.08173°
Mean anomaly
73.9905°
Eccentric anomaly
74.03611°
Mean motion
4.11027 °/min
Orbital period
87.59 mins
BSTAR
0.00034011
Loading maneuver chart data...
Computing Atmospheric mass density...

Documentation

Showing up to 5 results
|